FW9001 Weather Reports


Display with metric or nautical units.
time (UTC)temp
F
wind
direction
speed
MPH
gust
MPH
rain 1hr
in
rain 24hr
in
rain mn
in
humidity
%
barometer
mb
20260509074528 50 236 4.0 8.0 0.00 0.00 0.00 97 1006.2
20260509073035 51 224 4.0 9.0 0.00 0.00 0.00 97 1006.4
20260509071526 51 253 5.0 7.0 0.00 0.00 0.00 96 1006.5
20260509070028 51 238 3.0 8.0 0.00 0.00 0.00 96 1006.6
20260509064528 51 243 5.0 8.0 0.00 0.00 0.00 96 1006.6
20260509063031 52 250 5.0 9.0 0.00 0.00 0.00 95 1006.5
20260509061529 52 240 5.0 10.0 0.00 0.00 0.00 95 1007.0
20260509060029 52 244 4.0 11.0 0.00 0.00 0.00 94 1007.0
20260509054531 53 200 5.0 11.0 0.00 0.00 0.00 94 1006.9
20260509053046 53 233 5.0 10.0 0.00 0.00 0.00 93 1007.1
20260509051527 53 229 5.0 10.0 0.00 0.00 0.00 92 1007.2
20260509050033 53 210 5.0 9.0 0.00 0.00 0.00 91 1007.3
20260509044527 54 250 5.0 10.0 0.00 0.00 0.00 90 1007.4
20260509043038 54 234 5.0 9.0 0.00 0.00 0.00 89 1007.2
20260509041530 54 221 7.0 10.0 0.00 0.00 0.00 88 1007.5
20260509040028 55 222 5.0 11.0 0.00 0.00 0.00 88 1007.4
20260509034528 55 252 5.0 11.0 0.00 0.00 0.00 87 1007.6
20260509033026 55 240 6.0 10.0 0.00 0.00 0.00 86 1007.8
20260509031529 55 168 4.0 10.0 0.00 0.00 0.00 85 1007.8
20260509030030 56 244 5.0 10.0 0.00 0.00 0.00 84 1007.9
20260509024527 56 237 4.0 8.0 0.00 0.00 0.00 83 1007.7
20260509023027 56 234 5.0 10.0 0.00 0.00 0.00 82 1007.8
20260509021527 57 226 5.0 11.0 0.00 0.00 0.00 80 1007.8
20260509020028 57 208 4.0 7.0 0.00 0.00 0.00 79 1007.8
20260509014530 58 221 3.0 9.0 0.00 0.00 0.00 78 1007.7
20260509013031 58 229 5.0 11.0 0.00 0.00 0.00 78 1007.8
20260509011528 59 257 7.0 12.0 0.00 0.00 0.00 77 1007.7
20260509010033 59 229 8.0 14.0 0.00 0.00 0.00 76 1007.5
20260509004529 60 250 7.0 15.0 0.00 0.00 0.00 75 1007.3
20260509003033 61 219 8.0 17.0 0.00 0.00 0.00 72 1007.2
20260509001530 62 263 4.0 12.0 0.00 0.00 0.00 69 1007.2
20260509000027 62 255 6.0 13.0 0.00 0.00 0.00 69 1007.2
20260508234529 63 225 7.0 13.0 0.00 0.00 0.00 67 1007.2
20260508233035 63 263 6.0 13.0 0.00 0.00 0.00 68 1007.3
20260508231529 63 243 7.0 14.0 0.00 0.00 0.00 68 1007.3
20260508230027 63 259 6.0 15.0 0.00 0.00 0.00 70 1007.4
20260508224529 62 214 9.0 17.0 0.00 0.00 0.00 70 1007.4
20260508223027 63 252 12.0 21.0 0.00 0.00 0.00 70 1007.6
20260508221528 63 254 10.0 21.0 0.00 0.00 0.00 71 1007.5
20260508220028 62 257 8.0 16.0 0.00 0.00 0.00 70 1007.5
20260508214534 62 239 9.0 18.0 0.00 0.00 0.00 71 1007.5
20260508213029 62 236 7.0 15.0 0.00 0.00 0.00 71 1007.6
20260508211530 62 261 9.0 17.0 0.00 0.00 0.00 72 1007.6
20260508210035 62 252 9.0 14.0 0.00 0.00 0.00 70 1007.8
20260508204536 62 220 2.0 6.0 0.00 0.00 0.00 68 1007.8
20260508203033 62 4 1.0 3.0 0.00 0.00 0.00 69 1008.1
20260508201528 62 0 0.0 5.0 0.00 0.00 0.00 68 1008.3
20260508200027 62 323 1.0 4.0 0.00 0.00 0.00 69 1008.7
20260508194526 62 140 0.0 5.0 0.00 0.00 0.00 69 1008.7
20260508193029 61 98 6.0 9.0 0.00 0.00 0.00 69 1008.8
20260508191530 61 245 4.0 10.0 0.00 0.00 0.00 69 1008.9
20260508190029 60 142 3.0 6.0 0.00 0.00 0.00 72 1009.2
20260508184527 60 89 5.0 8.0 0.00 0.00 0.00 72 1009.6
20260508183030 60 126 3.0 7.0 0.00 0.00 0.00 71 1009.7
20260508181540 60 90 2.0 9.0 0.00 0.00 0.00 73 1009.8
20260508180030 59 93 1.0 8.0 0.00 0.00 0.00 73 1010.0
20260508174531 59 146 3.0 6.0 0.00 0.00 0.00 73 1010.2
20260508173031 60 0 2.0 5.0 0.00 0.00 0.00 73 1010.5
20260508171533 59 169 5.0 6.0 0.00 0.00 0.00 76 1010.7
20260508170030 59 208 2.0 4.0 0.00 0.00 0.00 74 1010.8
20260508164528 58 247 1.0 6.0 0.00 0.00 0.00 76 1010.9
20260508163032 57 232 3.0 8.0 0.00 0.00 0.00 78 1011.3
20260508161546 57 229 4.0 6.0 0.00 0.00 0.00 81 1011.4
20260508160030 56 0 1.0 8.0 0.00 0.00 0.00 84 1011.4
20260508154530 56 197 4.0 9.0 0.00 0.00 0.00 83 1011.5
20260508153049 55 208 5.0 11.0 0.00 0.00 0.00 84 1011.7
20260508151527 55 175 6.0 10.0 0.00 0.00 0.00 84 1011.6
20260508150031 55 232 7.0 11.0 0.00 0.00 0.00 85 1011.7
20260508144531 54 236 5.0 10.0 0.00 0.00 0.00 85 1011.7
20260508143050 54 255 5.0 8.0 0.00 0.00 0.00 89 1011.7
20260508141531 53 243 4.0 10.0 0.00 0.00 0.00 90 1011.6
20260508140027 52 235 6.0 11.0 0.00 0.00 0.00 91 1011.8
20260508134535 52 236 5.0 11.0 0.00 0.00 0.00 94 1011.9
20260508133028 51 237 5.0 9.0 0.00 0.00 0.00 96 1012.0
20260508131528 50 245 3.0 9.0 0.00 0.00 0.00 96 1011.8
20260508130030 49 222 5.0 12.0 0.00 0.00 0.00 96 1011.9
20260508124529 49 226 5.0 9.0 0.00 0.00 0.00 95 1012.2
20260508123031 48 224 5.0 9.0 0.00 0.00 0.00 94 1012.4
20260508121527 47 214 2.0 5.0 0.00 0.00 0.00 94 1011.9
20260508120026 46 186 0.0 2.0 0.00 0.00 0.00 92 1012.1
20260508114528 46 0 0.0 2.0 0.00 0.00 0.00 92 1011.9
20260508113030 46 81 1.0 2.0 0.00 0.00 0.00 91 1011.7
20260508111529 47 0 0.0 1.0 0.00 0.00 0.00 90 1011.7
20260508110032 47 250 0.0 2.0 0.00 0.00 0.00 90 1011.7
20260508104528 48 0 0.0 2.0 0.00 0.00 0.00 89 1011.6
20260508103041 47 249 2.0 4.0 0.00 0.00 0.00 89 1011.7
20260508101530 47 0 0.0 6.0 0.00 0.00 0.00 89 1011.6
20260508100032 47 219 3.0 6.0 0.00 0.00 0.00 89 1011.7
20260508094528 47 262 3.0 5.0 0.00 0.00 0.00 88 1011.8
20260508093034 47 237 3.0 6.0 0.00 0.00 0.00 87 1012.0
20260508091528 47 227 3.0 5.0 0.00 0.00 0.00 87 1012.0
20260508090034 47 240 4.0 7.0 0.00 0.00 0.00 87 1012.1
20260508084529 47 238 3.0 6.0 0.00 0.00 0.00 87 1012.0
20260508083029 47 265 3.0 5.0 0.00 0.00 0.00 87 1012.2
20260508081527 46 262 1.0 3.0 0.00 0.00 0.00 87 1012.2
20260508080029 46 251 2.0 4.0 0.00 0.00 0.00 87 1012.4